TimeEST,TemperatureF,Dew PointF,Humidity,Sea Level PressureIn,VisibilityMPH,Wind Direction,Wind SpeedMPH,Gust SpeedMPH,PrecipitationIn,Events,Conditions,WindDirDegrees,DateUTC
12:14 AM,18.1,15.6,90,30.05,3.0,Calm,Calm,-,N/A,Snow,Light Snow,0,2013-02-16 05:14:00
12:34 AM,18.5,15.4,88,30.04,7.0,SSE,3.5,-,N/A,Snow,Light Snow,150,2013-02-16 05:34:00
12:54 AM,15.8,13.8,92,30.04,3.0,Calm,Calm,-,N/A,Snow,Light Snow,0,2013-02-16 05:54:00
1:14 AM,14.9,12.9,92,30.03,7.0,Calm,Calm,-,N/A,Snow,Light Snow,0,2013-02-16 06:14:00
1:34 AM,17.1,15.1,92,30.03,4.0,Calm,Calm,-,N/A,Snow,Light Snow,0,2013-02-16 06:34:00
1:54 AM,17.1,14.9,91,30.02,5.0,South,3.5,-,N/A,Snow,Light Snow,180,2013-02-16 06:54:00
2:14 AM,16.5,13.8,89,30.01,5.0,South,3.5,-,N/A,Snow,Light Snow,170,2013-02-16 07:14:00
2:34 AM,15.4,13.5,92,30.01,10.0,SSE,4.6,-,N/A,Snow,Light Snow,150,2013-02-16 07:34:00
2:54 AM,16.3,14.2,91,30.00,3.0,SSE,4.6,-,N/A,Snow,Light Snow,160,2013-02-16 07:54:00
3:14 AM,16.0,13.5,90,30.00,4.0,SSW,3.5,-,N/A,Snow,Light Snow,200,2013-02-16 08:14:00
3:34 AM,16.2,13.5,89,29.99,10.0,Calm,Calm,-,N/A,,Overcast,0,2013-02-16 08:34:00
3:54 AM,18.5,14.9,86,29.99,10.0,WNW,4.6,-,N/A,,Overcast,300,2013-02-16 08:54:00
4:14 AM,18.5,14.4,84,29.99,10.0,Calm,Calm,-,N/A,,Overcast,0,2013-02-16 09:14:00
4:34 AM,18.7,14.9,85,29.99,10.0,West,5.8,-,N/A,Snow,Light Snow,280,2013-02-16 09:34:00
4:54 AM,18.9,14.2,82,29.99,10.0,NW,9.2,-,N/A,Snow,Light Snow,320,2013-02-16 09:54:00
5:14 AM,17.8,12.0,78,29.99,10.0,NNW,9.2,-,N/A,Snow,Light Snow,340,2013-02-16 10:14:00
5:34 AM,16.3,10.6,78,29.99,10.0,NNW,8.1,-,N/A,Snow,Light Snow,340,2013-02-16 10:34:00
6:14 AM,15.4,9.9,79,29.99,7.0,North,6.9,-,N/A,Snow,Light Snow,350,2013-02-16 11:14:00
6:34 AM,13.1,7.7,79,29.99,10.0,WNW,8.1,-,N/A,Snow,Light Snow,300,2013-02-16 11:34:00
6:53 AM,11.7,6.8,81,29.99,10.0,NW,6.9,-,N/A,Snow,Light Snow,310,2013-02-16 11:53:00
7:14 AM,8.1,3.7,83,30.00,10.0,NW,6.9,-,N/A,,Clear,310,2013-02-16 12:14:00
7:34 AM,7.2,2.5,81,30.00,10.0,NW,6.9,-,N/A,,Clear,310,2013-02-16 12:34:00
7:53 AM,4.8,0.1,81,30.00,10.0,NW,4.6,-,N/A,,Clear,310,2013-02-16 12:53:00
8:14 AM,7.3,3.2,83,30.01,10.0,Calm,Calm,-,N/A,,Clear,0,2013-02-16 13:14:00
8:34 AM,9.5,5.2,83,30.01,10.0,Calm,Calm,-,N/A,,Scattered Clouds,0,2013-02-16 13:34:00
8:53 AM,10.2,5.2,80,30.01,10.0,WNW,4.6,-,N/A,,Clear,300,2013-02-16 13:53:00
9:14 AM,11.7,6.4,80,30.01,10.0,NW,4.6,-,N/A,,Clear,320,2013-02-16 14:14:00
9:34 AM,15.3,8.6,75,30.01,10.0,North,5.8,-,N/A,,Clear,350,2013-02-16 14:34:00
9:53 AM,16.3,8.4,71,30.01,10.0,North,5.8,-,N/A,,Clear,350,2013-02-16 14:53:00
10:14 AM,17.2,8.2,68,30.01,10.0,North,5.8,-,N/A,,Clear,360,2013-02-16 15:14:00
10:34 AM,17.6,8.2,67,30.01,10.0,NNW,3.5,-,N/A,,Clear,330,2013-02-16 15:34:00
10:53 AM,18.3,7.9,64,30.01,10.0,NW,3.5,-,N/A,,Clear,320,2013-02-16 15:53:00
11:14 AM,19.0,7.3,60,30.01,10.0,North,4.6,-,N/A,,Clear,360,2013-02-16 16:14:00
11:34 AM,19.8,6.8,57,30.01,10.0,NNE,6.9,-,N/A,,Clear,20,2013-02-16 16:34:00
11:53 AM,20.3,6.4,55,30.01,10.0,North,4.6,-,N/A,,Clear,360,2013-02-16 16:53:00
12:14 PM,20.8,6.6,54,30.00,10.0,NW,4.6,-,N/A,,Mostly Cloudy,310,2013-02-16 17:14:00
12:34 PM,21.6,5.4,50,30.00,10.0,Calm,Calm,-,N/A,,Overcast,0,2013-02-16 17:34:00
12:54 PM,20.3,3.2,48,29.99,10.0,North,3.5,-,N/A,,Overcast,350,2013-02-16 17:54:00
1:14 PM,21.4,2.5,44,29.99,10.0,North,3.5,-,N/A,,Mostly Cloudy,360,2013-02-16 18:14:00
1:34 PM,23.2,2.1,40,29.98,10.0,NNW,3.5,-,N/A,,Scattered Clouds,330,2013-02-16 18:34:00
1:54 PM,21.2,0.3,40,29.98,10.0,Calm,Calm,-,N/A,,Mostly Cloudy,0,2013-02-16 18:54:00
2:14 PM,22.8,1.4,40,29.98,10.0,Calm,Calm,-,N/A,,Overcast,0,2013-02-16 19:14:00
2:34 PM,21.2,3.6,47,29.97,10.0,NNW,4.6,-,N/A,,Scattered Clouds,340,2013-02-16 19:34:00
2:54 PM,23.4,4.6,45,29.97,10.0,West,5.8,-,N/A,,Mostly Cloudy,280,2013-02-16 19:54:00
3:14 PM,24.1,6.3,47,29.97,10.0,West,4.6,-,N/A,,Overcast,280,2013-02-16 20:14:00
3:34 PM,23.5,7.0,49,29.97,10.0,WNW,10.4,-,N/A,,Overcast,290,2013-02-16 20:34:00
3:54 PM,23.7,8.8,53,29.98,10.0,NW,6.9,-,N/A,,Overcast,320,2013-02-16 20:54:00
4:14 PM,20.3,12.9,73,29.98,1.8,WNW,4.6,-,N/A,Snow,Light Snow,300,2013-02-16 21:14:00
4:34 PM,20.5,11.5,68,29.98,10.0,NW,4.6,-,N/A,,Mostly Cloudy,310,2013-02-16 21:34:00
4:54 PM,19.6,10.8,69,29.99,10.0,North,3.5,-,N/A,,Scattered Clouds,350,2013-02-16 21:54:00
5:14 PM,20.1,10.4,66,29.99,10.0,NNW,8.1,-,N/A,,Mostly Cloudy,340,2013-02-16 22:14:00
5:34 PM,19.0,14.0,81,30.00,1.0,NNE,5.8,-,N/A,Snow,Light Snow,20,2013-02-16 22:34:00
5:54 PM,18.5,11.8,75,30.01,10.0,North,4.6,-,N/A,,Overcast,350,2013-02-16 22:54:00
6:14 PM,18.0,10.6,73,30.01,10.0,North,4.6,-,N/A,,Overcast,350,2013-02-16 23:14:00
6:34 PM,17.1,8.8,70,30.02,10.0,North,5.8,-,N/A,,Scattered Clouds,360,2013-02-16 23:34:00
6:54 PM,16.5,9.0,72,30.03,10.0,NW,4.6,-,N/A,,Clear,320,2013-02-16 23:54:00
7:14 PM,13.5,6.6,74,30.04,10.0,Calm,Calm,-,N/A,,Clear,0,2013-02-17 00:14:00
7:34 PM,13.1,7.5,78,30.04,10.0,NNW,3.5,-,N/A,,Scattered Clouds,340,2013-02-17 00:34:00
7:54 PM,13.6,5.9,71,30.04,10.0,North,4.6,-,N/A,,Scattered Clouds,350,2013-02-17 00:54:00
8:14 PM,13.6,4.5,67,30.05,10.0,North,5.8,-,N/A,,Scattered Clouds,350,2013-02-17 01:14:00
8:34 PM,13.3,4.5,68,30.05,10.0,North,3.5,-,N/A,,Clear,360,2013-02-17 01:34:00
8:53 PM,12.0,4.1,71,30.05,10.0,NNW,3.5,-,N/A,,Clear,330,2013-02-17 01:53:00
9:14 PM,10.2,3.0,73,30.06,10.0,NNW,3.5,-,N/A,,Clear,340,2013-02-17 02:14:00
9:34 PM,8.2,2.3,77,30.06,10.0,NW,3.5,-,N/A,,Clear,320,2013-02-17 02:34:00
9:53 PM,8.8,3.2,78,30.07,10.0,NNW,3.5,-,N/A,,Clear,330,2013-02-17 02:53:00
10:14 PM,5.7,0.9,80,30.07,10.0,Calm,Calm,-,N/A,,Clear,0,2013-02-17 03:14:00
10:34 PM,1.9,-2.9,80,30.07,10.0,Calm,Calm,-,N/A,,Clear,0,2013-02-17 03:34:00
10:53 PM,-0.8,-6.2,78,30.07,10.0,West,3.5,-,N/A,,Clear,280,2013-02-17 03:53:00
11:14 PM,1.0,-4.0,79,30.07,10.0,Calm,Calm,-,N/A,,Clear,0,2013-02-17 04:14:00
11:34 PM,-0.0,-5.3,79,30.07,10.0,Calm,Calm,-,N/A,,Clear,0,2013-02-17 04:34:00
11:53 PM,2.3,-2.6,80,30.08,10.0,Calm,Calm,-,N/A,,Clear,0,2013-02-17 04:53:00